[[{"header":{"parameterUnit":"m.s-1","parameterCategory":1,"la1":30.2991,"la2":30.254,"lo1":-89.0895,"lo2":-89.0444,"dy":0.0017,"dx":0.0017,"nx":28,"ny":28,"refTime":"2025-06-13T09:00:00:Z","depth":0,"parameterNumber":2,"parameterNumberName":"U-component_of_WINDS"},"data":[0,0,0,0,0,0,0,0,0,0,0,0,0,0,0,0,0,0,0,0,0,0,0,0,0,0,0,0,0,0,0,0,0,0,0,0,0,0,0,0,0,0,0,0,0,0,0,0,0,0,0,0,0,0,0,0,0,0,0.282,0.2821,0,0.2871,0.2872,0.2873,0.288,0.2879,0.2879,0.2878,0.2936,0.2938,0.294,0,0,0,0,0,0,0,0,0,0,0,0,0,0.2731,0.2733,0.282,0.2821,0.2821,0.2871,0.2872,0.2873,0.288,0.2879,0.2879,0.2878,0.2935,0.2937,0.294,0,0,0,0,0,0,0,0,0,0,0,0,0,0.2775,0.2733,0.282,0.2831,0.2832,0.2871,0.2872,0.2873,0.288,0.2879,0.2878,0.2878,0.2934,0.2937,0.294,0.2973,0,0,0.2949,0.2951,0,0,0,0,0,0,0,0,0.2773,0.2778,0.2829,0.283,0.2832,0.2868,0.2862,0.2907,0.288,0.2862,0.2878,0.2877,0.2914,0.2919,0.293,0.2976,0.2979,0.295,0.2951,0.2953,0.2953,0,0,0,0,0,0,0,0.277,0.2776,0.2841,0.2829,0.2831,0.2834,0.2839,0.287,0.2892,0.2863,0.2864,0.287,0.2915,0.2927,0.2932,0.2979,0.2949,0.2952,0.2954,0.2955,0.3053,0.3054,0,0,0,0,0,0,0.2764,0.2774,0.2839,0.2842,0.28,0.2836,0.2842,0.2857,0.2891,0.2896,0.287,0.287,0.2923,0.2928,0.2934,0.2973,0.2953,0.2955,0.2957,0.3052,0.3053,0.3054,0,0,0,0,0,0,0.2762,0.277,0.2837,0.2808,0.2817,0.2838,0.2855,0.2859,0.2871,0.2897,0.2901,0.2879,0.2922,0.2929,0.2963,0.2975,0.2957,0.2959,0.3051,0.3053,0.3054,0.3054,0,0,0,0,0,0,0.2759,0.2769,0.2781,0.2808,0.2818,0.2864,0.2856,0.286,0.2876,0.2875,0.2906,0.291,0.2922,0.2958,0.2966,0.2979,0.2962,0.305,0.3052,0.3053,0.3053,0.3055,0.3057,0,0,0,0,0,0.2756,0.2781,0.2782,0.279,0.2834,0.2865,0.2871,0.2883,0.2877,0.2889,0.2905,0.2909,0.2973,0.2961,0.297,0.2985,0.305,0.3051,0.3053,0.3052,0.3054,0.3057,0,0,0,0,0,0,0.2757,0.2785,0.2786,0.282,0.2839,0.2866,0.2882,0.2885,0.2909,0.2908,0.2924,0.293,0.2962,0.2977,0.2964,0.3018,0.3011,0.3014,0.3007,0.3009,0.3011,0.3007,0.2964,0,0,0,0,0,0.2761,0.2782,0.2806,0.2833,0.2843,0.2861,0.2875,0.2882,0.2904,0.2913,0.2932,0.2954,0.2979,0.2995,0.302,0.3055,0.3061,0.3069,0.3071,0.3072,0.3075,0.3094,0.3097,0.306,0.306,0.306,0,0,0.277,0.2787,0.28,0.2834,0.285,0.2872,0.2868,0.2893,0.291,0.2917,0.2949,0.2963,0.2989,0.3023,0.3039,0.3036,0.3087,0.3075,0.3076,0.3078,0.3096,0.3099,0.3102,0.3061,0.3061,0.3061,0,0,0.2797,0.2812,0.2836,0.2851,0.2875,0.2886,0.2892,0.2917,0.2926,0.2958,0.2963,0.2984,0.3028,0.3045,0.306,0.3091,0.3095,0.3098,0.3109,0.3126,0.3129,0.3132,0.3142,0.3146,0.3101,0.3101,0.3101,0,0.2805,0.2838,0.2848,0.2871,0.2886,0.2891,0.2915,0.2931,0.2962,0.2972,0.2968,0.302,0.3038,0.3075,0.3083,0.3095,0.3102,0.3095,0.3128,0.313,0.3133,0.3143,0.3147,0.3102,0.3102,0.3102,0.3101,0,0.2846,0.2869,0.2885,0.2912,0.2928,0.2952,0.2967,0.2982,0.2988,0.2999,0.3031,0.3052,0.308,0.309,0.3097,0.3128,0.3125,0.3124,0.3118,0.3137,0.3146,0.315,0.3102,0.3102,0.3102,0.3102,0,0,0.2876,0.2907,0.2913,0.2924,0.2949,0.2968,0.2992,0.3017,0.3029,0.305,0.3071,0.3106,0.3104,0.3121,0.313,0.3145,0.3167,0.3142,0.3143,0.3145,0.3201,0.3201,0.3205,0.3169,0.317,0.3171,0.3198,0,0.2905,0.2946,0.2955,0.299,0.3011,0.3015,0.3036,0.3054,0.3066,0.3086,0.3099,0.3123,0.312,0.313,0.3145,0.3161,0.3178,0.3159,0.3189,0.319,0.3181,0.321,0.321,0.3236,0.3202,0.3203,0.3203,0,0.2945,0.2964,0.3001,0.3021,0.303,0.3048,0.3071,0.309,0.3111,0.3118,0.3135,0.3142,0.3167,0.3159,0.3194,0.3181,0.3194,0.3203,0.3204,0.3207,0.3197,0.3213,0.3244,0.3248,0.321,0.3209,0.3209,0,0.2962,0.2997,0.3023,0.3033,0.3058,0.307,0.3082,0.3101,0.3115,0.3136,0.3145,0.3169,0.3182,0.3201,0.3214,0.3207,0.3248,0.3241,0.3255,0.3254,0.3263,0.3263,0.3296,0.3272,0.3272,0.3272,0.3272,0,0.2993,0.3015,0.303,0.3046,0.3071,0.3081,0.3106,0.3117,0.3134,0.3153,0.3159,0.3177,0.3193,0.3214,0.3224,0.3251,0.3258,0.3264,0.3267,0.3263,0.3262,0.3272,0.327,0.3273,0.3273,0.3273,0.3273,0,0.3016,0.3027,0.3055,0.3076,0.3081,0.3098,0.3116,0.3132,0.3143,0.3167,0.3173,0.319,0.3214,0.3229,0.326,0.3267,0.3296,0.3299,0.3289,0.329,0.3302,0.33,0.3343,0.3348,0.3321,0.3322,0.3322,0,0.3035,0.3052,0.3073,0.3085,0.3095,0.3115,0.3128,0.3139,0.3153,0.3176,0.3189,0.3213,0.3232,0.327,0.3287,0.331,0.3313,0.3326,0.3317,0.3312,0.3312,0.331,0.3312,0.3327,0.3328,0.3328,0.3328,0,0.3067,0.3071,0.3089,0.3108,0.3123,0.314,0.3157,0.3166,0.318,0.3195,0.3218,0.3233,0.3263,0.3287,0.3311,0.3324,0.3328,0.333,0.3335,0.3331,0.3324,0.3327,0.3292,0.333,0.3329,0.3329,0.3329,0.3329,0.3088,0.3102,0.3118,0.3138,0.3151,0.3165,0.3181,0.3192,0.3211,0.3234,0.324,0.3264,0.3283,0.3316,0.333,0.3349,0.3348,0.3354,0.3356,0.3357,0.3356,0.3321,0.3354,0.3354,0.3354,0.3354,0.3354,0,0.3119,0.3129,0.3147,0.3168,0.3184,0.3184,0.3202,0.3215,0.3235,0.3252,0.327,0.3296,0.3318,0.3335,0.3358,0.3371,0.3373,0.3376,0.3375,0.3378,0.3357,0.3351,0.3374,0.3374,0.3374,0.3374,0.3374,0.3374,0.3137,0.3161,0.3166,0.3196,0.3206,0.3228,0.3238,0.3251,0.3264,0.3292,0.331,0.332,0.3337,0.3361,0.3381,0.3386,0.3394,0.3397,0.3402,0.3382,0.338,0.3378,0.3371,0.3398,0.3398,0.3421,0.3421,0.3421]},{"header":{"parameterUnit":"m.s-1","parameterCategory":1,"la1":30.2991,"la2":30.254,"lo1":-89.0895,"lo2":-89.0444,"dy":0.0017,"dx":0.0017,"nx":28,"ny":28,"refTime":"2025-06-13T09:00:00:Z","depth":0,"parameterNumber":3,"parameterNumberName":"V-component_of_WINDS"},"data":[0,0,0,0,0,0,0,0,0,0,0,0,0,0,0,0,0,0,0,0,0,0,0,0,0,0,0,0,0,0,0,0,0,0,0,0,0,0,0,0,0,0,0,0,0,0,0,0,0,0,0,0,0,0,0,0,0,0,5.1702,5.1702,0,5.1705,5.1705,5.1705,5.1622,5.1619,5.1617,5.1615,5.1618,5.162,5.1622,0,0,0,0,0,0,0,0,0,0,0,0,0,5.162,5.1622,5.1702,5.1702,5.1702,5.1705,5.1705,5.1705,5.1622,5.1619,5.1617,5.1614,5.1617,5.162,5.1623,0,0,0,0,0,0,0,0,0,0,0,0,0,5.1643,5.1623,5.1702,5.1661,5.1657,5.1705,5.1705,5.1705,5.1623,5.1619,5.1616,5.1613,5.1617,5.162,5.1623,5.1711,0,0,5.1633,5.1634,0,0,0,0,0,0,0,0,5.1642,5.1646,5.1667,5.1664,5.166,5.166,5.1678,5.1707,5.1623,5.1636,5.1615,5.1611,5.1635,5.1636,5.1644,5.1711,5.1711,5.1633,5.1635,5.1637,5.1637,0,0,0,0,0,0,0,5.164,5.1645,5.1703,5.1667,5.1663,5.1641,5.1641,5.1683,5.1654,5.1634,5.1628,5.163,5.1632,5.1641,5.1644,5.1711,5.1633,5.1636,5.1638,5.1639,5.1846,5.1849,0,0,0,0,0,0,5.1645,5.1645,5.1703,5.1703,5.1642,5.1645,5.1645,5.1663,5.1653,5.1649,5.1633,5.1626,5.1637,5.164,5.1643,5.1742,5.1637,5.164,5.1641,5.1842,5.1847,5.185,0,0,0,0,0,0,5.1643,5.1651,5.1703,5.1672,5.1677,5.165,5.1671,5.1665,5.1674,5.1652,5.1646,5.1648,5.1635,5.1639,5.1694,5.1741,5.1641,5.1644,5.1838,5.1844,5.1848,5.1943,0,0,0,0,0,0,5.1641,5.1651,5.1684,5.1674,5.1679,5.1754,5.1674,5.1667,5.168,5.1671,5.1664,5.166,5.1632,5.1689,5.1697,5.1744,5.1647,5.1834,5.1841,5.1847,5.1935,5.1951,5.1964,0,0,0,0,0,5.1639,5.1711,5.1686,5.1694,5.1721,5.1757,5.176,5.1727,5.1684,5.1717,5.1702,5.166,5.1736,5.1696,5.1704,5.1752,5.183,5.1839,5.1846,5.1929,5.1948,5.1964,0,0,0,0,0,0,5.1729,5.1709,5.1681,5.1753,5.1757,5.1743,5.1783,5.1748,5.1764,5.1755,5.1713,5.1713,5.1773,5.1769,5.1725,5.1835,5.1775,5.1785,5.1835,5.1853,5.1867,5.1866,5.1649,0,0,0,0,0,5.1757,5.1788,5.177,5.1835,5.1838,5.1811,5.1825,5.1799,5.1801,5.1803,5.1792,5.1796,5.182,5.1837,5.1858,5.1935,5.1931,5.1972,5.1987,5.1999,5.2007,5.2044,5.2061,5.1876,5.1876,5.1876,0,0,5.1816,5.1809,5.1831,5.1853,5.1853,5.1884,5.1813,5.185,5.1873,5.1808,5.1858,5.1851,5.1852,5.1918,5.1946,5.1916,5.2057,5.2009,5.2018,5.202,5.2054,5.2071,5.2087,5.1882,5.1881,5.188,0,0,5.1938,5.1938,5.1989,5.1991,5.1991,5.1972,5.1985,5.1976,5.1968,5.2018,5.1969,5.1996,5.2039,5.2041,5.2047,5.2169,5.2129,5.2177,5.2251,5.2287,5.2302,5.2314,5.2355,5.237,5.2186,5.2186,5.2186,0,5.201,5.2057,5.2021,5.2061,5.207,5.2013,5.2064,5.2068,5.2076,5.2083,5.2049,5.21,5.2097,5.2161,5.219,5.2199,5.221,5.2176,5.2303,5.2315,5.2326,5.2364,5.238,5.2192,5.2191,5.219,5.219,0,5.2144,5.2177,5.2219,5.2227,5.2242,5.2288,5.2257,5.2276,5.2249,5.2233,5.2283,5.2278,5.2295,5.2309,5.2284,5.2369,5.2349,5.231,5.2249,5.235,5.2385,5.2399,5.2199,5.2197,5.2196,5.2194,0,0,5.2323,5.2309,5.2324,5.2326,5.2322,5.2346,5.2389,5.2405,5.2421,5.2429,5.2462,5.2499,5.2462,5.2469,5.2443,5.2476,5.2569,5.2432,5.2432,5.2455,5.2658,5.2686,5.2703,5.2544,5.2546,5.2549,5.2657,0,5.2438,5.2509,5.2477,5.2551,5.258,5.2525,5.2562,5.2563,5.2549,5.2571,5.2556,5.2581,5.2532,5.2536,5.2566,5.2551,5.2608,5.2543,5.2572,5.2573,5.257,5.2722,5.2751,5.2854,5.2671,5.2673,5.2675,0,5.2583,5.2594,5.2671,5.2659,5.267,5.2703,5.2714,5.2737,5.2736,5.2724,5.2732,5.2698,5.2737,5.2678,5.2731,5.2687,5.2697,5.2692,5.2695,5.2694,5.2628,5.2722,5.2886,5.29,5.2696,5.2695,5.2693,0,5.2701,5.2736,5.2785,5.2789,5.2777,5.2801,5.2798,5.2794,5.2805,5.2815,5.2822,5.2837,5.2845,5.2857,5.2828,5.2789,5.2884,5.2823,5.2873,5.2873,5.2893,5.2891,5.3058,5.2905,5.2905,5.2905,5.2904,0,5.2831,5.288,5.2838,5.2868,5.2919,5.2882,5.2934,5.2925,5.2921,5.2948,5.2903,5.2929,5.289,5.2911,5.2889,5.2934,5.2939,5.2929,5.2922,5.2931,5.2932,5.2935,5.2926,5.2909,5.2908,5.2907,5.2906,0,5.2971,5.2945,5.2995,5.2979,5.2976,5.3015,5.3001,5.3027,5.3011,5.3045,5.305,5.3024,5.3047,5.3019,5.3041,5.3025,5.3086,5.307,5.3086,5.308,5.3129,5.3124,5.3301,5.3321,5.3159,5.316,5.3162,0,5.3054,5.309,5.3077,5.3091,5.309,5.3114,5.3124,5.3089,5.3102,5.3103,5.3129,5.3148,5.3161,5.3201,5.3183,5.3198,5.318,5.3242,5.3182,5.319,5.3177,5.3174,5.3176,5.3253,5.3255,5.3256,5.3258,0,5.3204,5.3189,5.3206,5.3218,5.3232,5.324,5.3245,5.3259,5.3222,5.3239,5.3261,5.3271,5.3292,5.3311,5.3321,5.3317,5.328,5.3277,5.3288,5.3296,5.3303,5.3297,5.3115,5.3272,5.3271,5.3269,5.3269,5.3268,5.3315,5.3343,5.3338,5.3357,5.3357,5.3362,5.3385,5.3371,5.3389,5.3402,5.338,5.3408,5.3405,5.3415,5.3414,5.3435,5.3409,5.3426,5.343,5.3434,5.344,5.3302,5.3437,5.3437,5.3437,5.3436,5.3436,0,5.3459,5.3453,5.3472,5.3479,5.3494,5.3459,5.3462,5.3477,5.3501,5.3501,5.3514,5.3539,5.3557,5.3541,5.3555,5.3575,5.3558,5.3579,5.3576,5.3575,5.3465,5.3452,5.3592,5.3592,5.3592,5.3592,5.3592,5.3592,5.3536,5.3579,5.3564,5.3606,5.3599,5.3625,5.3629,5.3633,5.3633,5.3662,5.3676,5.3665,5.3658,5.3671,5.3686,5.368,5.3686,5.3713,5.3701,5.3598,5.3583,5.3568,5.3555,5.3715,5.3715,5.3809,5.381,5.381]}]]